Weather History for KMUI - December, 2012

Change the Weather History Date:

Tuesday, December 18, 2012

  Actual Average Record
Temperature  
Mean Temperature 46 °F -  
Max Temperature 50 °F 38 °F 64 °F (2006)
Min Temperature 40 °F 27 °F 15 °F (2002)
Degree Days  
Heating Degree Days 20    
Moisture  
Dew Point 42 °F    
Average Humidity 94    
Maximum Humidity 100    
Minimum Humidity 58    
Precipitation  
Precipitation 0.03 in - - ()
Sea Level Pressure  
Sea Level Pressure 29.57 in    
Wind  
Wind Speed 4 mph (WSW)    
Max Wind Speed 20 mph    
Max Gust Speed 30 mph    
Visibility 5 miles    
Events Fog , Rain    
Averages and records for this station are not official NWS values.
T = Trace of Precipitation, MM = Missing Value Source: NWS Daily Summary

Daily Weather History Graph

Daily Weather History Graph

Search for Another Location

Airport or City:

Trip Planner

Search our weather history database for the weather conditions in past years. The results will help you decide how hot, cold, wet, or windy it might be!

Date:

Astronomy

Dec. 18, 2012 Rise Set
Actual Time 7:24 AM EST 4:41 PM EST
Civil Twilight 6:53 AM EST 5:12 PM EST
Nautical Twilight 6:19 AM EST 5:46 PM EST
Astronomical Twilight 5:46 AM EST 6:20 PM EST
Moon 11:02 AM EST (12/18) 11:06 PM EST (12/18)
Length of Visible Light 10h 18m
Length of Day
9h 17m
Waxing Crescent, 34% of the Moon is Illuminated
Dec 18
Waxing Crescent
Dec 20
First Quarter
Dec 28
Full
Jan 4
Last Quarter
Jan 11
New

Hourly Weather History & Observations

Time (EST) Temp. Windchill Dew Point Humidity Pressure Visibility Wind Dir Wind Speed Gust Speed Precip Events Conditions
12:03 AM 42.8 °F 39.3 °F 42.8 °F 100% 29.57 in 9.0 mi NE 5.8 mph - N/A   Light Drizzle
12:16 AM 42.8 °F 40.1 °F 42.8 °F 100% 29.57 in 10.0 mi NE 4.6 mph - N/A   Overcast
12:39 AM 42.8 °F 40.1 °F 42.8 °F 100% 29.56 in 10.0 mi NE 4.6 mph - N/A   Light Drizzle
12:49 AM 42.8 °F 39.3 °F 42.8 °F 100% 29.55 in 10.0 mi ENE 5.8 mph - N/A   Overcast
12:55 AM 42.4 °F - 42.4 °F 100% 29.55 in 10.0 mi Calm Calm - 0.00 in   Overcast
1:00 AM 42.8 °F 41.1 °F 42.8 °F 100% 29.55 in 9.0 mi North 3.5 mph - N/A   Light Drizzle
1:16 AM 42.8 °F 41.1 °F 42.8 °F 100% 29.55 in 4.0 mi NE 3.5 mph - N/A   Light Drizzle
1:30 AM 42.8 °F 41.1 °F 42.8 °F 100% 29.55 in 6.0 mi NE 3.5 mph - N/A   Light Drizzle
1:32 AM 42.8 °F 41.1 °F 42.8 °F 100% 29.55 in 6.0 mi NE 3.5 mph - N/A   Overcast
1:47 AM 42.8 °F - 42.8 °F 100% 29.55 in 5.0 mi Calm Calm - N/A   Overcast
1:55 AM 42.6 °F 39.9 °F 42.6 °F 100% 29.55 in 4.0 mi NNE 4.6 mph - 0.01 in   Overcast
2:17 AM 42.8 °F - 42.8 °F 100% 29.55 in 3.0 mi Calm Calm - N/A   Overcast
2:18 AM 42.8 °F - 42.8 °F 100% 29.55 in 3.0 mi Calm Calm - N/A   Overcast
2:23 AM 42.8 °F 41.1 °F 42.8 °F 100% 29.55 in 3.0 mi NE 3.5 mph - N/A   Overcast
2:55 AM 42.8 °F - 42.8 °F 100% 29.54 in 4.0 mi Calm Calm - 0.01 in   Overcast
3:12 AM 42.8 °F - 42.8 °F 100% 29.53 in 3.0 mi Calm Calm - N/A   Overcast
3:13 AM 42.8 °F - 42.8 °F 100% 29.53 in 2.5 mi Calm Calm - N/A   Overcast
3:19 AM 42.8 °F - 42.8 °F 100% 29.53 in 1.8 mi Calm Calm - N/A   Overcast
3:20 AM 42.8 °F - 42.8 °F 100% 29.52 in 1.5 mi Calm Calm - N/A   Overcast
3:22 AM 42.8 °F - 42.8 °F 100% 29.53 in 1.2 mi Calm Calm - N/A   Overcast
3:23 AM 42.8 °F - 42.8 °F 100% 29.53 in 1.2 mi Calm Calm - N/A   Overcast
3:30 AM 42.8 °F - 42.8 °F 100% 29.53 in 1.5 mi Calm Calm - N/A   Overcast
3:31 AM 42.8 °F - 42.8 °F 100% 29.53 in 1.8 mi Calm Calm - N/A   Overcast
3:32 AM 42.8 °F - 42.8 °F 100% 29.53 in 2.0 mi Calm Calm - N/A   Overcast
3:35 AM 42.8 °F - 42.8 °F 100% 29.53 in 3.0 mi Calm Calm - N/A   Overcast
3:39 AM 42.8 °F - 42.8 °F 100% 29.53 in 2.5 mi Calm Calm - N/A   Overcast
3:55 AM 42.8 °F - 42.8 °F 100% 29.53 in 2.0 mi Calm Calm - N/A   Overcast
4:04 AM 42.8 °F - 42.8 °F 100% 29.53 in 1.8 mi Calm Calm - N/A   Overcast
4:11 AM 42.8 °F 41.1 °F 42.8 °F 100% 29.53 in 1.8 mi WSW 3.5 mph - N/A   Overcast
4:13 AM 42.8 °F 41.1 °F 42.8 °F 100% 29.54 in 2.0 mi WSW 3.5 mph - N/A   Overcast
4:55 AM 42.4 °F - 42.4 °F 100% 29.54 in 2.0 mi Calm Calm - N/A   Overcast
5:41 AM 42.8 °F - 42.8 °F 100% 29.54 in 2.0 mi Calm Calm - N/A   Overcast
5:43 AM 42.8 °F - 42.8 °F 100% 29.54 in 2.0 mi Calm Calm - N/A   Overcast
5:46 AM 42.8 °F - 42.8 °F 100% 29.54 in 1.8 mi Calm Calm - N/A   Overcast
5:48 AM 42.8 °F - 42.8 °F 100% 29.55 in 1.5 mi Calm Calm - N/A   Overcast
5:51 AM 42.8 °F - 42.8 °F 100% 29.55 in 1.2 mi Calm Calm - N/A   Overcast
5:55 AM 42.6 °F - 42.6 °F 100% 29.55 in 1.2 mi Calm Calm - N/A   Overcast
5:58 AM 42.8 °F - 42.8 °F 100% 29.55 in 1.0 mi Calm Calm - N/A   Mist
6:45 AM 42.8 °F - 42.8 °F 100% 29.55 in 0.8 mi Calm Calm - N/A   Mist
6:55 AM 42.8 °F - 42.8 °F 100% 29.55 in 0.8 mi Calm Calm - N/A   Mist
6:56 AM 42.8 °F - 42.8 °F 100% 29.55 in 0.5 mi Calm Calm - N/A Fog Fog
6:59 AM 42.8 °F 41.1 °F 42.8 °F 100% 29.55 in 0.8 mi SSE 3.5 mph - N/A   Mist
7:19 AM 42.8 °F - 42.8 °F 100% 29.56 in 1.0 mi Calm Calm - N/A   Mist
7:22 AM 42.8 °F - 42.8 °F 100% 29.56 in 1.2 mi Calm Calm - N/A   Overcast
7:26 AM 42.8 °F - 42.8 °F 100% 29.56 in 1.5 mi Calm Calm - N/A   Overcast
7:31 AM 42.8 °F - 42.8 °F 100% 29.56 in 1.8 mi Calm Calm - N/A   Overcast
7:41 AM 42.8 °F - 42.8 °F 100% 29.56 in 1.5 mi Calm Calm - N/A   Overcast
7:45 AM 42.8 °F - 42.8 °F 100% 29.56 in 1.2 mi Calm Calm - N/A   Overcast
7:51 AM 42.8 °F - 42.8 °F 100% 29.56 in 1.0 mi Calm Calm - N/A   Mist
7:55 AM 42.8 °F - 42.8 °F 100% 29.55 in 1.0 mi Calm Calm - N/A   Mist
8:02 AM 42.8 °F - 42.8 °F 100% 29.55 in 0.8 mi Calm Calm - N/A   Mist
8:11 AM 42.8 °F - 42.8 °F 100% 29.55 in 1.0 mi Calm Calm - N/A   Mist
8:13 AM 42.8 °F - 42.8 °F 100% 29.55 in 1.2 mi Calm Calm - N/A   Overcast
8:16 AM 42.8 °F - 42.8 °F 100% 29.55 in 1.5 mi Calm Calm - N/A   Overcast
8:25 AM 42.8 °F - 42.8 °F 100% 29.55 in 1.2 mi Calm Calm - N/A   Overcast
8:29 AM 42.8 °F - 42.8 °F 100% 29.55 in 1.0 mi Calm Calm - N/A   Mist
8:39 AM 42.8 °F - 42.8 °F 100% 29.55 in 1.2 mi Calm Calm - N/A   Overcast
8:47 AM 42.8 °F - 42.8 °F 100% 29.55 in 1.5 mi Calm Calm - N/A   Overcast
8:50 AM 42.8 °F - 42.8 °F 100% 29.55 in 1.8 mi Calm Calm - N/A   Overcast
8:52 AM 42.8 °F - 42.8 °F 100% 29.55 in 2.0 mi Calm Calm - N/A   Overcast
8:54 AM 42.8 °F - 42.8 °F 100% 29.55 in 2.5 mi Calm Calm - N/A   Overcast
8:55 AM 43.5 °F - 43.5 °F 100% 29.55 in 2.5 mi Calm Calm - N/A   Overcast
8:57 AM 42.8 °F 41.1 °F 42.8 °F 100% 29.56 in 3.0 mi SSW 3.5 mph - N/A   Overcast
9:08 AM 44.6 °F 42.2 °F 44.6 °F 100% 29.55 in 1.5 mi SSW 4.6 mph - N/A   Overcast
9:18 AM 44.6 °F 42.2 °F 44.6 °F 100% 29.55 in 2.0 mi South 4.6 mph - N/A   Overcast
9:55 AM 45.0 °F 41.8 °F 45.0 °F 100% 29.56 in 2.5 mi SSW 5.8 mph - N/A   Overcast
10:11 AM 46.4 °F 42.9 °F 46.4 °F 100% 29.56 in 3.0 mi SW 6.9 mph - N/A   Overcast
10:21 AM 46.4 °F 41.9 °F 46.4 °F 100% 29.56 in 6.0 mi SW 9.2 mph - N/A   Overcast
10:42 AM 46.4 °F 42.4 °F 46.4 °F 100% 29.55 in 10.0 mi SW 8.1 mph - N/A   Mostly Cloudy
10:49 AM 46.4 °F 41.9 °F 46.4 °F 100% 29.55 in 10.0 mi SW 9.2 mph - N/A   Mostly Cloudy
10:55 AM 47.3 °F - 47.3 °F 100% 29.55 in 10.0 mi SW 8.1 mph - N/A   Mostly Cloudy
11:31 AM 48.2 °F - 48.2 °F 100% 29.54 in 9.0 mi SW 9.2 mph - N/A Rain Light Rain
11:43 AM 48.2 °F - 48.2 °F 100% 29.54 in 10.0 mi SW 9.2 mph - N/A   Mostly Cloudy
11:55 AM 48.6 °F - 48.2 °F 99% 29.54 in 10.0 mi SW 9.2 mph - 0.00 in   Light Drizzle
12:16 PM 50.0 °F - 48.2 °F 94% 29.53 in 10.0 mi WSW 8.1 mph - N/A   Mostly Cloudy
12:30 PM 50.0 °F - 46.4 °F 87% 29.53 in 10.0 mi WSW 12.7 mph - N/A   Light Drizzle
12:55 PM 48.7 °F - 46.4 °F 92% 29.53 in 10.0 mi WSW 18.4 mph 23.0 mph 0.01 in   Light Drizzle
12:58 PM 48.2 °F - 46.4 °F 93% 29.53 in 10.0 mi West 15.0 mph 23.0 mph N/A   Light Drizzle
12:59 PM 48.2 °F - 44.6 °F 87% 29.53 in 10.0 mi West 13.8 mph 23.0 mph N/A   Light Drizzle
1:01 PM 48.2 °F - 44.6 °F 87% 29.53 in 10.0 mi West 10.4 mph 23.0 mph N/A   Mostly Cloudy
1:55 PM 48.2 °F - 37.6 °F 67% 29.55 in 10.0 mi West 16.1 mph 26.5 mph 0.00 in   Overcast
2:55 PM 46.9 °F - 36.3 °F 67% 29.59 in 10.0 mi WSW 18.4 mph 23.0 mph N/A   Mostly Cloudy
3:30 PM 46.4 °F 40.1 °F 35.6 °F 66% 29.60 in 10.0 mi West 15.0 mph 26.5 mph N/A   Light Drizzle
3:55 PM 44.6 °F 37.8 °F 35.6 °F 71% 29.62 in 10.0 mi West 15.0 mph 28.8 mph 0.00 in Rain Light Rain
4:22 PM 44.6 °F 37.4 °F 33.8 °F 66% 29.63 in 10.0 mi WNW 16.1 mph 29.9 mph N/A   Light Drizzle
4:32 PM 44.6 °F 38.1 °F 33.8 °F 66% 29.64 in 10.0 mi West 13.8 mph 21.9 mph N/A   Mostly Cloudy
4:35 PM 44.6 °F 36.6 °F 33.8 °F 66% 29.64 in 10.0 mi West 19.6 mph 29.9 mph N/A   Light Drizzle
4:55 PM 43.5 °F 38.3 °F 34.2 °F 70% 29.65 in 10.0 mi West 9.2 mph 29.9 mph 0.00 in   Light Drizzle
5:11 PM 42.8 °F 36.6 °F 33.8 °F 70% 29.65 in 10.0 mi West 11.5 mph - N/A   Mostly Cloudy
5:55 PM 43.5 °F 37.1 °F 32.2 °F 64% 29.67 in 10.0 mi West 12.7 mph 26.5 mph 0.00 in   Overcast
6:55 PM 43.2 °F 36.6 °F 32.2 °F 65% 29.69 in 10.0 mi West 12.7 mph 20.7 mph N/A   Mostly Cloudy
7:55 PM 42.4 °F 35.0 °F 30.4 °F 62% 29.73 in 10.0 mi West 15.0 mph 26.5 mph N/A   Overcast
8:55 PM 42.1 °F 35.2 °F 28.2 °F 58% 29.75 in 10.0 mi West 12.7 mph 24.2 mph N/A   Overcast
9:55 PM 41.9 °F 36.9 °F 28.6 °F 59% 29.75 in 10.0 mi WNW 8.1 mph - N/A   Overcast
10:55 PM 41.7 °F 35.6 °F 28.9 °F 61% 29.75 in 10.0 mi West 10.4 mph - N/A   Overcast
11:55 PM 40.5 °F 36.5 °F 28.0 °F 61% 29.76 in 10.0 mi Variable 5.8 mph - N/A   Clear